Location: Peach Mountain Observatory
(42.3967°N, 83.9367°W)
Time: 17:56:18
(UTC-05:00)

S-56A Canister/Altair - All Passes

Search period start: 24 January 2020 00:00
Search period end: 03 February 2020 00:00
Orbit: 634 x 2498 km, 38.9° (Epoch: 24 January)

Date Brightness Start Highest point End Pass type
(mag) Time Alt. Az. Time Alt. Az. Time Alt. Az.
24 Jan - 00:44:34 10° W 00:48:54 45° SSW 00:53:18 10° ESE night (unlit)
24 Jan - 02:49:02 10° WSW 02:52:00 17° SSW 02:55:17 10° SSE night (unlit)
24 Jan - 20:03:46 10° SSW 20:09:37 28° SSE 20:14:05 10° E visible
24 Jan - 22:07:34 10° WSW 22:13:07 53° S 22:17:32 10° E visible
25 Jan - 00:11:53 10° W 00:16:25 48° SSW 00:20:44 10° ESE night (unlit)
25 Jan - 02:16:19 10° WSW 02:19:28 19° SSW 02:22:53 10° SSE night (unlit)
25 Jan - 19:30:48 10° SSW 19:36:58 26° SSE 19:41:36 10° E visible
25 Jan - 21:34:35 10° WSW 21:40:34 52° S 21:45:07 10° E visible
25 Jan - 23:39:08 10° W 23:43:56 52° S 23:48:14 10° ESE night (unlit)
26 Jan - 01:43:36 10° WSW 01:46:58 21° SSW 01:50:30 10° SSE night (unlit)
26 Jan - 18:57:48 10° SSW 19:04:15 25° SSE 19:09:07 10° E visible
26 Jan - 21:01:31 10° WSW 21:07:59 51° S 21:12:44 10° E visible
26 Jan - 23:06:17 10° W 23:11:25 55° S 23:15:46 10° ESE night (unlit)
27 Jan - 01:10:51 10° W 01:14:29 24° SSW 01:18:08 10° SSE night (unlit)
27 Jan - 18:24:47 10° SSW 18:31:31 24° SSE 18:36:35 10° ESE visible
27 Jan - 20:28:21 10° WSW 20:35:22 49° SSE 20:40:20 10° E visible
27 Jan - 22:33:20 10° W 22:38:55 58° S 22:43:21 10° ESE visible
28 Jan - 00:38:03 10° W 00:42:00 27° SSW 00:45:48 10° SE night (unlit)
28 Jan - 17:51:45 10° SSW 17:58:43 23° SSE 18:04:00 10° ESE daylight
28 Jan - 19:55:08 10° SW 20:02:42 48° SSE 20:07:58 10° E visible
28 Jan - 22:00:18 10° W 22:06:22 61° S 22:10:58 10° ESE visible
29 Jan - 00:05:12 10° W 00:09:32 31° SSW 00:13:28 10° SE night (unlit)
29 Jan - 17:18:45 10° SSW 17:25:52 22° SSE 17:31:21 10° ESE daylight
29 Jan - 19:21:51 10° SW 19:30:00 46° SSE 19:35:34 10° E visible
29 Jan - 21:27:10 10° W 21:33:47 62° S 21:38:35 10° E visible
29 Jan - 23:32:18 10° W 23:37:04 36° SSW 23:41:09 10° SE night (unlit)
30 Jan - 16:45:46 10° S 16:52:59 21° SSE 16:58:38 10° ESE daylight
30 Jan - 18:48:31 10° SW 18:57:14 44° SSE 19:03:10 10° E visible
30 Jan - 20:53:56 10° WSW 21:01:10 64° S 21:06:14 10° E visible
30 Jan - 22:59:19 10° W 23:04:34 41° SSW 23:08:51 10° SE visible
31 Jan - 01:06:07 10° SW 01:07:14 11° SW 01:08:19 10° SSW night (unlit)
31 Jan - 16:12:52 10° S 16:20:04 19° SSE 16:25:49 10° ESE daylight
31 Jan - 18:15:09 10° SW 18:24:25 43° SSE 18:30:43 10° E visible
31 Jan - 20:20:36 10° WSW 20:28:30 64° S 20:33:52 10° E visible
31 Jan - 22:26:15 10° W 22:32:04 47° SSW 22:36:32 10° SE visible
01 Feb - 00:32:23 10° WSW 00:34:46 14° SW 00:37:01 10° S night (unlit)
01 Feb - 15:40:03 10° S 15:47:05 18° SE 15:52:51 10° ESE daylight
01 Feb - 17:41:45 10° SW 17:51:33 41° SSE 17:58:16 10° E daylight
01 Feb - 19:47:11 10° WSW 19:55:47 64° S 20:01:30 10° E visible
01 Feb - 21:53:05 10° W 21:59:31 52° SSW 22:04:14 10° ESE visible
01 Feb - 23:59:03 10° WSW 00:02:18 17° SW 00:05:15 10° S night (unlit)
02 Feb - 15:07:21 10° S 15:14:05 16° SE 15:19:44 10° ESE daylight
02 Feb - 17:08:20 10° SW 17:18:37 40° SSE 17:25:44 10° E daylight
02 Feb - 19:13:42 10° WSW 19:23:01 64° S 19:29:08 10° E visible
02 Feb - 21:19:49 10° W 21:26:56 57° SSW 21:31:56 10° ESE visible
02 Feb - 23:25:47 10° W 23:29:51 21° SW 23:33:20 10° SSE night (unlit)
